EXOCUBE

Last updated on Wed Feb 06 2019 03:05:25 GMT+0000 (Coordinated Universal Time)

1 40380U 15003E 19035.88421193 .00000893 00000-0 44572-4 0 9994 2 40380 99.0992 341.0857 0140852 201.3615 158.1697 15.13117042221121
UTC large
Height (km)
Speed (km/s)
/
Latitude / Longitude
Inclination (degrees)
Orbital Period (minutes)
Azimuth
Elevation
Range (km)
Doppler Factor

Next 0 passes for location: London (51.5072 / 0.1276)

Sorry there are no passes over London.